Folgueroles (Osona)





Hora UTC 06:45
Temperatura 22.6 ºC
Humitat 83.0 %
Pressió 1006.3 hPa
Pluja 0.0 mm
Velocitat vent 0.0 km/h
Direcció vent SSW

Dades diàries 2024-07-21



Hora UTC (hivern +1h; estiu +2h)
Temperatura (ºC) Humitat (%) Pressió (hPa) Velocitat vent (km/h) Precipitació (mm)
Hora UTC Aire Humitat Pressió Vel. Dir. Vel. Max Dir. Intent. màx 5 min.
00:05 22.0 68.0 1005.1 0.0 N 0.0 0.0
00:10 21.9 69.0 1005.0 0.0 N 0.0 0.0
00:15 22.0 70.0 1005.0 0.0 N 0.0 0.0
00:20 22.0 70.0 1005.0 0.0 N 0.0 0.0
00:25 21.9 70.0 1005.0 0.0 N 0.0 0.0
00:30 21.9 69.0 1004.8 0.0 N 0.0 0.0
00:35 21.9 69.0 1005.0 0.0 N 0.0 0.0
00:40 21.8 69.0 1004.8 0.0 N 0.0 0.0
00:45 21.8 70.0 1004.7 0.0 N 0.0 0.0
00:50 21.8 70.0 1004.7 0.0 N 0.0 0.0
00:55 21.8 70.0 1004.9 0.0 N 0.0 0.0
01:00 21.8 70.0 1004.8 0.0 N 0.0 0.0
01:05 21.7 70.0 1004.8 0.0 N 0.0 0.0
01:10 21.7 71.0 1004.8 0.0 N 0.0 0.0
01:15 21.7 72.0 1005.0 0.0 N 0.0 0.0
01:20 21.6 72.0 1005.0 0.0 N 0.0 0.0
01:25 21.4 74.0 1005.3 0.0 N 0.0 0.0
01:30 21.3 74.0 1005.2 0.0 N 0.0 0.0
01:35 21.1 76.0 1005.2 0.0 N 0.0 0.0
01:40 21.0 77.0 1005.2 0.0 N 0.0 0.0
01:45 20.9 76.0 1005.1 0.0 N 0.0 0.0
01:50 20.9 76.0 1005.0 0.0 N 1.6 0.0
01:55 20.9 77.0 1004.9 0.0 N 1.6 0.0
02:00 21.0 78.0 1004.7 0.0 N 0.0 0.0
02:05 21.1 80.0 1004.8 0.0 NNE 4.8 0.0
02:10 21.1 80.0 1004.8 0.0 NNE 0.0 0.0
02:15 21.1 80.0 1004.9 0.0 NNE 0.0 0.0
02:20 21.2 81.0 1004.9 0.0 NNE 0.0 0.0
02:25 21.3 81.0 1005.0 0.0 NNE 3.2 0.0
02:30 21.6 81.0 1005.0 1.6 NNE 4.8 0.0
02:35 21.7 80.0 1005.1 0.0 N 4.8 0.0
02:40 21.8 80.0 1005.1 0.0 N 1.6 0.0
02:45 21.8 80.0 1005.0 0.0 N 0.0 0.0
02:50 21.7 81.0 1005.0 0.0 N 0.0 0.0
02:55 21.6 81.0 1005.1 0.0 N 0.0 0.0
03:00 21.5 81.0 1005.1 0.0 N 0.0 0.0
03:05 21.4 82.0 1005.2 0.0 N 0.0 0.0
03:10 21.4 82.0 1005.4 0.0 N 0.0 0.0
03:15 21.3 82.0 1005.4 0.0 N 0.0 0.0
03:20 21.3 82.0 1005.6 0.0 N 0.0 0.0
03:25 21.3 82.0 1005.6 0.0 N 0.0 0.0
03:30 21.4 83.0 1005.7 0.0 NE 14.5 0.0
03:35 21.6 83.0 1005.7 4.8 SSE 6.4 0.0
03:40 21.8 83.0 1005.6 3.2 ENE 11.3 0.0
03:45 22.0 83.0 1005.7 9.7 ENE 12.9 0.0
03:50 22.3 82.0 1005.6 6.4 NE 14.5 0.0
03:55 22.4 82.0 1005.5 1.6 ENE 14.5 0.0
04:00 22.4 82.0 1005.5 0.0 ENE 9.7 0.0
04:05 22.4 82.0 1005.4 4.8 NE 14.5 0.0
04:10 22.4 82.0 1005.4 1.6 SE 14.5 0.0
04:15 22.4 82.0 1005.5 3.2 ENE 11.3 0.0
04:20 22.4 83.0 1005.6 3.2 NE 11.3 0.0
04:25 22.3 83.0 1005.6 0.0 ENE 8.0 0.0
04:30 22.3 83.0 1005.7 0.0 ENE 8.0 0.0
04:35 22.2 83.0 1005.7 0.0 ENE 3.2 0.0
04:40 22.3 83.0 1005.7 0.0 ENE 0.0 0.0
04:45 22.2 84.0 1005.8 3.2 NE 4.8 0.0
04:50 22.2 84.0 1005.8 4.8 NE 6.4 0.0
04:55 22.2 84.0 1005.8 4.8 NE 9.7 0.0
05:00 22.2 84.0 1005.8 6.4 NE 9.7 0.0
05:05 22.3 84.0 1005.8 4.8 NE 8.0 0.0
05:10 22.3 84.0 1005.8 3.2 ENE 8.0 0.0
05:15 22.3 84.0 1005.8 4.8 ENE 9.7 0.0
05:20 22.2 84.0 1005.8 4.8 NE 9.7 0.0
05:25 22.3 84.0 1005.8 3.2 ENE 12.9 0.0
05:30 22.3 83.0 1005.8 1.6 ENE 12.9 0.0
05:35 22.4 84.0 1005.9 0.0 ENE 6.4 0.0
05:40 22.6 83.0 1006.0 0.0 ENE 1.6 0.0
05:45 22.8 83.0 1005.9 1.6 ENE 3.2 0.0
05:50 23.0 82.0 1006.0 0.0 NNE 3.2 0.0
05:55 23.2 82.0 1006.0 0.0 NNE 3.2 0.0
06:00 23.3 82.0 1006.1 0.0 W 1.6 0.0
06:05 23.4 81.0 1006.2 9.7 S 11.3 0.0
06:10 23.2 81.0 1006.3 6.4 SSW 11.3 0.0
06:15 23.0 81.0 1006.3 3.2 SSW 9.7 0.0
06:20 22.9 82.0 1006.3 3.2 SSW 9.7 0.0
06:25 22.7 82.0 1006.3 3.2 SSW 9.7 0.0
06:30 22.6 82.0 1006.2 4.8 SSW 9.7 0.0
06:35 22.6 83.0 1006.2 0.0 SSW 8.0 0.0
06:40 22.6 83.0 1006.4 0.0 SSW 4.8 0.0
06:45 22.6 83.0 1006.3 0.0 SSW 4.8 0.0
Màxima 23.4 84.0 1006.4 9.7 S 14.5 0.0
Mínima 20 68.0 1004.7
Total 0.0